Location: Curupao
(10.4996°N, 66.6442°W)
Time: 21:01:19
(UTC+00:00)

Centaur AC-72 - Pass Details

Date: 23 May 2024
Orbit: 1159 x 35197 km, 19.0° (Epoch: 25 June)

Event Time Altitude Azimuth Distance (km) Brightness Sun altitude
Rises 08:34:09 0° 282° (WNW) 26,037 9.3 -21.0°
Reaches altitude 10° 09:35:13 10° 286° (WNW) 12,864 7.8 -7.3°
Maximum altitude 10:07:17 89° 199° (SSW) 1,983 4.2 0.0°
Drops below altitude 10° 10:14:01 10° 108° (ESE) 3,225 6.1 1.5°
Sets 10:15:57 0° 108° (ESE) 4,044 6.7 2.0°
